1514664000.26,20878,6.06,72374.0,-9.45,-24.51,-26.87,0,*54
1514664001.51,20879,6.06,72374.8,-9.45,-24.51,-27.03,0,*58
1514664002.75,20880,6.06,72376.3,-9.45,-24.61,-27.13,0,*5C
1514664003.99,20881,6.13,72380.5,-9.45,-24.61,-27.29,0,*54
1514664005.24,20882,6.06,72378.0,-9.45,-24.61,-27.29,0,*57
1514664006.51,20883,6.06,72376.8,-9.45,-24.67,-27.51,0,*5F
1514664007.76,20884,6.06,72378.8,-9.49,-24.67,-27.77,0,*50
1514664009.04,20885,6.06,72378.0,-9.49,-24.67,-27.61,0,*56
1514664010.31,20886,6.06,72380.8,-9.49,-24.67,-27.83,0,*59
1514664011.61,20887,6.06,72378.3,-9.45,-24.67,-27.99,0,*5F
1514664012.86,20888,6.06,72380.0,-9.49,-24.67,-27.93,0,*56
1514664014.09,20889,6.06,72380.3,-9.49,-24.31,-27.67,0,*5F
1514664015.35,20890,6.06,72376.8,-9.49,-24.31,-27.83,0,*5D
1514664016.62,20891,6.06,72380.0,-9.45,-24.35,-27.83,0,*54
1514664017.85,20892,6.06,72376.8,-9.49,-24.35,-27.93,0,*5A
1514664019.15,20893,6.06,72382.8,-9.45,-24.21,-27.99,0,*58
1514664020.42,20894,6.06,72380.3,-9.45,-24.35,-28.05,0,*50
1514664021.69,20895,6.06,72378.5,-9.45,-23.99,-27.93,0,*50
1514664022.94,20896,6.06,72376.0,-9.43,-24.31,-28.09,0,*5C
1514664024.2,20897,6.06,72376.8,-9.49,-24.21,-28.15,0,*5B
1514664025.47,20898,6.06,72376.5,-9.45,-24.61,-28.63,0,*5D
1514664026.73,20899,6.06,72382.5,-9.45,-24.61,-28.79,0,*57
1514664027.98,20900,6.06,72380.8,-9.43,-24.61,-28.91,0,*56
1514664029.23,20901,6.06,72380.3,-9.45,-24.87,-29.07,0,*57
1514664030.46,20902,6.06,72384.0,-9.43,-24.93,-29.29,0,*5B
1514664031.7,20903,6.06,72378.8,-9.43,-25.13,-29.51,0,*5C
1514664032.95,20904,6.06,72374.0,-9.43,-25.29,-29.83,0,*5D
1514664034.18,20905,6.06,72374.5,-9.43,-25.45,-29.95,0,*51
1514664035.43,20906,6.06,72372.0,-9.43,-25.61,-30.17,0,*56
1514664036.67,20907,6.06,72376.0,-9.43,-25.81,-30.33,0,*5F
1514664037.91,20908,6.06,72370.8,-9.43,-25.91,-30.39,0,*5B
1514664039.18,20909,6.06,72374.8,-9.43,-25.97,-30.51,0,*52
1514664040.42,20910,6.06,72374.3,-9.43,-26.07,-30.51,0,*50
1514664041.67,20911,6.06,72370.8,-9.43,-26.07,-30.51,0,*51
1514664042.91,20912,6.06,72376.3,-9.43,-26.07,-30.55,0,*56
1514664044.2,20913,6.06,72376.3,-9.45,-26.13,-30.61,0,*53
1514664045.5,20914,6.06,72374.3,-9.45,-26.29,-30.73,0,*5E
1514664046.78,20915,6.06,72374.8,-9.45,-26.61,-30.89,0,*56
1514664048.05,20916,6.06,72372.3,-9.45,-26.45,-30.73,0,*56
1514664049.32,20917,6.06,72368.8,-9.45,-26.49,-30.61,0,*58
1514664050.61,20918,6.06,72368.3,-9.49,-26.33,-30.55,0,*51
1514664051.86,20919,6.06,72366.5,-9.49,-26.61,-30.55,0,*57
1514664053.13,20920,6.06,72368.5,-9.45,-26.87,-30.77,0,*59
1514664054.39,20921,6.06,72366.8,-9.43,-26.81,-30.67,0,*59
1514664055.67,20922,6.06,72368.0,-9.43,-26.81,-30.73,0,*5F
1514664056.92,20923,6.06,72372.0,-9.43,-26.77,-30.33,0,*53
1514664058.19,20924,6.06,72364.3,-9.43,-27.23,-30.89,0,*55
1514664059.47,20925,6.06,72362.5,-9.41,-27.39,-30.83,0,*57
1514664060.68,20926,6.06,72370.0,-9.43,-27.55,-31.05,0,*53
1514664061.93,20927,6.06,72366.0,-9.43,-27.61,-31.01,0,*51
1514664063.21,20928,6.06,72360.5,-9.41,-27.55,-30.89,0,*5A
1514664064.45,20929,6.06,72370.5,-9.41,-27.89,-31.01,0,*5B
1514664065.68,20930,6.06,72372.3,-9.43,-27.93,-30.83,0,*51
1514664066.92,20931,6.06,72370.5,-9.43,-28.09,-31.01,0,*57
1514664068.19,20932,6.06,72370.5,-9.41,-28.25,-31.05,0,*5C
1514664069.49,20933,6.06,72370.8,-9.41,-27.99,-30.73,0,*55
1514664070.74,20934,6.06,72364.5,-9.43,-28.09,-30.83,0,*59
1514664072.0,20935,6.06,72368.3,-9.41,-28.15,-30.67,0,*5D
1514664073.29,20936,6.06,72370.5,-9.41,-27.99,-30.39,0,*5E
1514664074.53,20937,6.06,72368.5,-9.37,-27.67,-29.95,0,*51
1514664075.74,20938,6.06,72366.5,-9.39,-27.71,-29.95,0,*57
1514664076.99,20939,6.06,72362.5,-9.37,-27.93,-29.95,0,*54
1514664078.25,20940,6.06,72370.3,-9.37,-27.71,-29.73,0,*5E
1514664079.51,20941,6.06,72370.8,-9.35,-27.99,-29.73,0,*5B
1514664080.76,20942,6.06,72370.8,-9.35,-28.63,-30.27,0,*5B
1514664082.06,20943,6.06,72372.0,-9.33,-29.01,-30.61,0,*5B
1514664083.3,20944,6.06,72372.3,-9.35,-28.79,-30.27,0,*56
1514664084.55,20945,6.06,72370.0,-9.33,-28.37,-29.67,0,*57
1514664085.79,20946,6.06,72366.0,-9.33,-28.37,-29.67,0,*54
1514664087.06,20947,6.06,72360.5,-9.33,-28.31,-29.51,0,*56
1514664088.35,20948,6.06,72364.0,-9.33,-28.63,-29.73,0,*5E
1514664089.6,20949,6.06,72364.3,-9.29,-28.85,-29.83,0,*53
1514664090.85,20950,6.06,72370.3,-9.31,-29.45,-30.39,0,*56
1514664092.09,20951,6.06,72372.5,-9.31,-29.61,-30.51,0,*5F
1514664093.33,20952,6.06,72376.5,-9.31,-29.61,-30.39,0,*52
1514664094.57,20953,6.06,72368.5,-9.31,-29.13,-29.67,0,*55
1514664095.84,20954,6.06,72364.8,-9.29,-29.17,-29.61,0,*59
1514664097.13,20955,6.06,72358.5,-9.29,-29.13,-29.51,0,*5F
1514664098.41,20956,6.06,72366.3,-9.29,-29.35,-29.79,0,*52
1514664099.66,20957,6.06,72364.0,-9.29,-29.67,-29.83,0,*51
1514664100.93,20958,6.06,72370.8,-9.29,-29.83,-30.01,0,*56
1514664102.22,20959,6.06,72374.5,-9.29,-30.05,-30.01,0,*51
1514664103.46,20960,6.06,72374.8,-9.29,-30.33,-30.23,0,*5E
1514664104.73,20961,6.06,72378.5,-9.31,-30.17,-30.05,0,*54
1514664106.02,20962,6.06,72372.5,-9.29,-30.05,-29.89,0,*51
1514664107.28,20963,6.06,72374.8,-9.29,-30.05,-29.79,0,*5F
1514664108.55,20964,6.06,72376.0,-9.29,-30.01,-29.67,0,*53
1514664109.8,20965,6.06,72374.8,-9.29,-29.83,-29.45,0,*50
1514664111.04,20966,6.06,72372.5,-9.31,-29.89,-29.45,0,*50
1514664112.28,20967,6.06,72370.5,-9.31,-29.83,-29.17,0,*5C
1514664113.55,20968,6.06,72368.0,-9.29,-29.61,-29.01,0,*51
1514664114.82,20969,6.06,72364.5,-9.29,-29.83,-29.17,0,*5B
1514664116.1,20970,6.06,72372.0,-9.29,-30.01,-29.29,0,*5C
1514664117.39,20971,6.06,72376.3,-9.29,-30.01,-29.17,0,*50
1514664118.69,20972,6.06,72370.8,-9.29,-29.51,-28.75,0,*5B
1514664119.93,20973,6.06,72370.8,-9.29,-29.67,-28.85,0,*50
1514664121.21,20974,6.06,72376.0,-9.29,-29.61,-28.63,0,*59
1514664122.48,20975,6.06,72368.5,-9.27,-29.13,-28.09,0,*5F
1514664123.71,20976,6.06,72368.0,-9.27,-29.13,-27.93,0,*50
1514664124.93,20977,6.06,72370.0,-9.27,-29.07,-27.93,0,*54
1514664126.19,20978,6.06,72374.0,-9.23,-29.29,-28.09,0,*5F
1514664127.43,20979,6.06,72372.5,-9.27,-29.61,-28.43,0,*58
1514664128.69,20980,6.06,72374.8,-9.23,-29.29,-28.05,0,*54
1514664129.91,20981,6.06,72374.3,-9.23,-29.61,-28.37,0,*58
1514664131.16,20982,6.06,72374.8,-9.27,-29.45,-28.25,0,*5A
1514664132.4,20983,6.06,72374.3,-9.23,-29.45,-28.21,0,*5B
1514664133.67,20984,6.06,72372.3,-9.23,-29.39,-28.05,0,*51
1514664134.91,20985,6.06,72372.5,-9.23,-29.45,-28.21,0,*5D
1514664136.12,20986,6.06,72376.8,-9.23,-29.23,-27.77,0,*52
1514664137.36,20987,6.06,72378.5,-9.23,-29.29,-27.89,0,*58
1514664138.65,20988,6.06,72380.3,-9.21,-29.35,-27.83,0,*52
1514664139.89,20989,6.06,72376.5,-9.23,-29.29,-27.71,0,*51
1514664141.1,20990,6.06,72378.8,-9.23,-29.23,-27.67,0,*54
1514664142.31,20991,6.06,72378.3,-9.23,-29.07,-27.51,0,*56
1514664143.58,20992,6.06,72376.8,-9.23,-28.91,-27.35,0,*59
1514664144.8,20993,6.06,72368.5,-9.23,-28.53,-26.87,0,*5E
1514664146.03,20994,6.13,72376.3,-9.23,-28.53,-26.93,0,*5C
1514664147.27,20995,6.06,72372.8,-9.21,-28.69,-27.03,0,*5E
1514664148.54,20996,6.06,72372.0,-9.21,-28.63,-26.87,0,*5A
1514664149.8,20997,6.06,72374.3,-9.21,-28.75,-27.13,0,*50
1514664151.06,20998,6.06,72370.0,-9.19,-28.47,-26.71,0,*50
1514664152.33,20999,6.06,72372.5,-9.21,-28.21,-26.49,0,*51
1514664153.56,21000,6.06,72374.8,-9.19,-28.31,-26.55,0,*5E
1514664154.82,21001,6.06,72376.8,-9.19,-28.47,-26.71,0,*58
1514664156.04,21002,6.06,72378.0,-9.19,-28.37,-26.65,0,*59
1514664157.3,21003,6.06,72378.0,-9.19,-28.47,-26.71,0,*5A
1514664158.54,21004,6.06,72374.8,-9.19,-28.21,-26.49,0,*56
1514664159.75,21005,6.06,72376.3,-9.19,-28.31,-26.49,0,*56
1514664161.01,21006,6.06,72370.0,-9.17,-28.43,-26.61,0,*54
1514664162.27,21007,6.06,72374.0,-9.15,-27.99,-26.23,0,*59
1514664163.51,21008,6.06,72378.3,-9.15,-27.93,-26.23,0,*5C
1514664164.78,21009,6.06,72376.8,-9.15,-28.09,-26.39,0,*5A
1514664166.01,21010,6.06,72382.5,-9.15,-28.31,-26.49,0,*5E
1514664167.27,21011,6.06,72380.5,-9.17,-28.09,-26.23,0,*5A
1514664168.57,21012,6.06,72380.3,-9.17,-28.09,-26.29,0,*53
1514664169.86,21013,6.06,72386.8,-9.15,-28.09,-26.29,0,*50
1514664171.15,21014,6.06,72388.3,-9.15,-27.99,-26.13,0,*58
1514664172.39,21015,6.06,72384.3,-9.17,-27.77,-26.07,0,*5E
1514664173.66,21016,6.06,72386.3,-9.17,-27.67,-25.97,0,*56
1514664174.96,21017,6.06,72382.0,-9.17,-27.45,-25.75,0,*5B
1514664176.23,21018,6.06,72374.3,-9.15,-27.23,-25.49,0,*59
1514664177.48,21019,6.06,72376.8,-9.15,-27.29,-25.49,0,*52
1514664178.74,21020,6.06,72372.5,-9.15,-27.13,-25.45,0,*5D
1514664180.01,21021,6.06,72372.5,-9.15,-26.97,-25.09,0,*59
1514664181.25,21022,6.06,72370.8,-9.11,-26.87,-25.09,0,*5F
1514664182.5,21023,6.06,72372.8,-9.13,-26.93,-25.09,0,*59
1514664183.74,21024,6.06,72372.3,-9.11,-26.45,-24.77,0,*5F
1514664184.99,21025,6.06,72374.0,-9.09,-26.49,-24.87,0,*54
1514664186.25,21026,6.06,72374.8,-9.11,-26.61,-25.03,0,*59
1514664187.52,21027,6.06,72372.3,-9.11,-26.61,-25.03,0,*58
1514664188.79,21028,6.06,72376.0,-9.11,-26.45,-24.71,0,*55
1514664190.01,21029,6.06,72378.8,-9.09,-26.49,-24.97,0,*59
1514664191.25,21030,6.06,72376.5,-9.09,-26.49,-24.87,0,*50
1514664192.54,21031,6.06,72378.3,-9.07,-26.33,-24.67,0,*5C
1514664193.8,21032,6.06,72372.0,-9.09,-26.29,-24.67,0,*5A
1514664195.05,21033,6.06,72376.3,-9.09,-26.17,-24.57,0,*55
1514664196.31,21034,6.06,72370.0,-9.07,-26.13,-24.51,0,*5E
1514664197.54,21035,6.06,72374.0,-9.07,-25.65,-24.05,0,*5C
1514664198.8,21036,6.06,72378.0,-9.07,-26.13,-24.57,0,*5A
1514664200.01,21037,6.06,72380.0,-9.05,-26.07,-24.51,0,*5A
1514664201.26,21038,6.06,72382.8,-9.03,-26.23,-24.67,0,*50
1514664202.5,21039,6.06,72376.8,-9.03,-26.07,-24.51,0,*52
1514664203.71,21040,6.06,72378.3,-9.05,-25.91,-24.35,0,*54
1514664204.92,21041,6.06,72376.0,-9.05,-26.07,-24.61,0,*58
1514664206.16,21042,6.06,72380.0,-9.03,-25.65,-24.31,0,*5F
1514664207.37,21043,6.06,72376.5,-9.05,-25.91,-24.47,0,*52
1514664208.61,21044,6.06,72382.5,-9.03,-25.65,-24.31,0,*59
1514664209.89,21045,6.06,72376.8,-9.03,-25.29,-23.99,0,*55
1514664211.15,21046,6.06,72380.3,-9.03,-25.61,-23.99,0,*5A
1514664212.4,21047,6.13,72388.5,-9.03,-25.75,-24.35,0,*5F
1514664213.68,21048,6.06,72380.8,-8.99,-25.29,-23.95,0,*56
1514664214.93,21049,6.06,72376.5,-8.99,-25.23,-23.95,0,*5D
1514664216.15,21050,6.06,72382.0,-8.99,-25.19,-23.79,0,*5E
1514664217.39,21051,6.06,72382.8,-8.97,-25.03,-23.79,0,*5A
1514664218.67,21052,6.06,72378.5,-8.99,-24.87,-23.65,0,*57
1514664219.91,21053,6.06,72380.8,-8.99,-24.77,-23.43,0,*5D
1514664221.18,21054,6.06,72376.5,-8.97,-24.71,-23.29,0,*5E
1514664222.43,21055,6.06,72380.8,-8.95,-24.57,-23.29,0,*59
1514664223.69,21056,6.06,72376.0,-8.95,-24.67,-23.39,0,*58
1514664224.95,21057,6.06,72378.3,-8.95,-24.67,-23.39,0,*59
1514664226.21,21058,6.06,72382.5,-8.95,-24.51,-23.29,0,*52
1514664227.45,21059,6.06,72372.3,-8.93,-24.35,-23.29,0,*57
1514664228.66,21060,6.06,72376.3,-8.93,-24.51,-23.39,0,*5E
1514664229.93,21061,6.06,72378.5,-8.91,-24.47,-23.33,0,*50
1514664231.16,21062,6.06,72376.8,-8.93,-24.87,-23.89,0,*5C
1514664232.4,21063,6.06,72382.5,-8.93,-24.83,-23.75,0,*5A
1514664233.64,21064,6.06,72376.3,-8.93,-24.67,-23.75,0,*57
1514664234.87,21065,6.06,72382.3,-8.93,-24.67,-23.75,0,*56
1514664236.14,21066,6.06,72376.5,-8.93,-24.67,-23.85,0,*5A
1514664237.35,21067,6.06,72376.5,-8.93,-24.35,-23.39,0,*5B
1514664238.59,21068,6.06,72376.8,-8.93,-24.25,-23.39,0,*55
1514664239.86,21069,6.06,72378.3,-8.93,-24.41,-23.69,0,*53
1514664241.09,21070,6.06,72378.5,-8.93,-24.57,-23.69,0,*5C
1514664242.33,21071,6.06,72382.3,-8.93,-24.51,-23.69,0,*5B
1514664243.59,21072,6.06,72380.3,-8.91,-24.47,-23.69,0,*5D
1514664244.87,21073,6.06,72380.5,-8.91,-24.21,-23.65,0,*50
1514664246.1,21074,6.06,72376.0,-8.91,-24.05,-23.39,0,*58
1514664247.38,21075,6.06,72380.8,-8.91,-24.21,-23.69,0,*5A
1514664248.67,21076,6.06,72380.8,-8.91,-24.21,-23.69,0,*59
1514664249.9,21077,6.06,72380.8,-8.93,-23.99,-23.39,0,*5B
1514664251.16,21078,6.06,72380.8,-8.93,-23.99,-23.53,0,*58
1514664252.44,21079,6.06,72382.8,-8.91,-23.95,-23.53,0,*57
1514664253.69,21080,6.06,72378.0,-8.91,-23.69,-23.39,0,*5E
1514664254.97,21081,6.06,72382.0,-8.91,-23.65,-23.33,0,*59
1514664256.24,21082,6.06,72382.0,-8.91,-23.69,-23.49,0,*5B
1514664257.51,21083,6.06,72382.3,-8.91,-23.69,-23.53,0,*51
1514664258.8,21084,6.06,72384.5,-8.91,-23.95,-23.85,0,*5E
1514664260.07,21085,6.06,72384.5,-8.91,-23.95,-23.95,0,*5E
1514664261.35,21086,6.06,72382.3,-8.91,-23.99,-24.15,0,*5E
1514664262.62,21087,6.06,72380.5,-8.91,-23.69,-23.65,0,*50
1514664263.9,21088,6.06,72382.8,-8.91,-23.49,-23.65,0,*5D
1514664265.15,21089,6.06,72382.3,-8.91,-23.49,-23.79,0,*51
1514664266.39,21090,6.06,72382.3,-8.89,-23.19,-23.59,0,*57
1514664267.66,21091,6.06,72382.3,-8.91,-23.49,-23.95,0,*5A
1514664268.89,21092,6.06,72382.0,-8.89,-23.33,-23.79,0,*5F
1514664270.13,21093,6.06,72386.5,-8.89,-23.13,-23.49,0,*5F
1514664271.34,21094,6.06,72384.0,-8.89,-23.13,-23.59,0,*59
1514664272.58,21095,6.06,72382.0,-8.87,-23.13,-23.75,0,*58
1514664273.81,21096,6.06,72378.8,-8.87,-23.13,-23.79,0,*57
1514664275.05,21097,6.06,72376.3,-8.87,-22.97,-23.75,0,*57
1514664276.29,21098,6.06,72380.8,-8.87,-22.93,-23.79,0,*50
1514664277.57,21099,6.06,72386.8,-8.87,-23.19,-24.15,0,*5F
1514664278.86,21100,6.06,72388.8,-8.87,-23.33,-24.41,0,*57
1514664280.12,21101,6.06,72382.5,-8.87,-23.13,-24.25,0,*56
1514664281.33,21102,6.06,72382.8,-8.85,-22.87,-24.05,0,*59
1514664282.56,21103,6.06,72382.8,-8.85,-22.93,-24.11,0,*58
1514664283.77,21104,6.06,72388.0,-8.85,-23.13,-24.35,0,*50
1514664285.06,21105,6.06,72390.3,-8.87,-23.29,-24.71,0,*5A
1514664286.27,21106,6.06,72390.5,-8.85,-23.09,-24.57,0,*5D
1514664287.53,21107,6.06,72394.0,-8.85,-23.23,-24.83,0,*5D
1514664288.79,21108,6.06,72388.0,-8.85,-23.23,-24.87,0,*56
1514664290.05,21109,6.06,72388.3,-8.85,-23.29,-25.03,0,*50
1514664291.34,21110,6.06,72390.3,-8.87,-23.29,-25.03,0,*5A
1514664292.55,21111,6.06,72390.8,-8.85,-23.13,-24.97,0,*5C
1514664293.77,21112,6.06,72396.5,-8.85,-23.13,-25.09,0,*59
1514664295.0,21113,6.06,72392.8,-8.85,-23.29,-25.23,0,*59
1514664296.23,21114,6.06,72392.0,-8.85,-22.87,-24.87,0,*54
1514664297.5,21115,6.06,72390.8,-8.85,-22.77,-24.87,0,*5A
1514664298.71,21116,6.06,72390.8,-8.85,-22.93,-25.19,0,*55
1514664299.93,21117,6.06,72390.0,-8.85,-22.97,-25.23,0,*59
1514664301.14,21118,6.06,72384.3,-8.85,-22.93,-25.23,0,*52
1514664302.38,21119,6.06,72386.8,-8.85,-22.47,-24.97,0,*54
1514664303.65,21120,6.06,72376.8,-8.83,-22.47,-24.87,0,*59
1514664304.88,21121,6.06,72384.8,-8.83,-22.73,-25.19,0,*59
1514664306.12,21122,6.06,72384.8,-8.83,-22.73,-25.09,0,*5B
1514664307.38,21123,6.06,72378.8,-8.81,-22.77,-25.35,0,*53
1514664308.62,21124,6.06,72380.3,-8.77,-22.87,-25.65,0,*57
1514664309.9,21125,6.06,72378.8,-8.77,-22.93,-25.75,0,*52
1514664311.19,21126,6.06,72376.8,-8.77,-23.03,-25.81,0,*52
1514664312.46,21127,6.06,72380.8,-8.75,-23.03,-25.97,0,*56
1514664313.75,21128,6.06,72380.8,-8.77,-23.23,-26.13,0,*56
1514664314.99,21129,6.06,72382.3,-8.75,-23.03,-26.07,0,*52
1514664316.26,21130,6.06,72374.0,-8.77,-23.19,-26.03,0,*57
1514664317.55,21131,6.06,72384.0,-8.77,-23.23,-26.33,0,*5C
1514664318.82,21132,6.06,72380.0,-8.75,-23.29,-26.29,0,*5C
1514664320.08,21133,6.06,72380.5,-8.73,-23.33,-26.45,0,*5A
1514664321.29,21134,6.06,72380.8,-8.75,-23.59,-26.61,0,*51
1514664322.55,21135,6.06,72382.3,-8.73,-23.79,-26.93,0,*59
1514664323.82,21136,6.06,72386.8,-8.73,-23.85,-27.03,0,*51
1514664325.08,21137,6.06,72386.5,-8.73,-23.95,-27.13,0,*50
1514664326.34,21138,6.06,72386.5,-8.71,-23.95,-27.19,0,*57
1514664327.58,21139,6.06,72382.8,-8.71,-24.21,-27.51,0,*52
1514664328.83,21140,6.06,72384.8,-8.73,-24.47,-27.77,0,*5A
1514664330.07,21141,6.06,72382.0,-8.71,-24.41,-27.67,0,*5E
1514664331.31,21142,6.06,72388.0,-8.73,-24.57,-27.67,0,*58
1514664332.55,21143,6.06,72384.0,-8.71,-24.57,-27.99,0,*5A
1514664333.8,21144,6.06,72382.5,-8.71,-24.71,-27.89,0,*58
1514664335.04,21145,6.06,72376.3,-8.73,-25.09,-28.31,0,*59
1514664336.27,21146,6.06,72378.3,-8.71,-25.09,-28.43,0,*5D
1514664337.56,21147,6.06,72380.5,-8.73,-25.29,-28.59,0,*57
1514664338.85,21148,6.06,72380.3,-8.73,-25.55,-28.63,0,*5A
1514664340.08,21149,6.06,72380.8,-8.71,-25.23,-28.43,0,*5A
1514664341.31,21150,6.06,72378.0,-8.71,-25.19,-28.43,0,*5B
1514664342.53,21151,6.06,72376.5,-8.71,-25.65,-28.85,0,*5B
1514664343.79,21152,6.06,72380.5,-8.73,-25.91,-28.91,0,*54
1514664345.0,21153,6.06,72384.5,-8.71,-25.65,-28.69,0,*5B
1514664346.23,21154,6.06,72382.3,-8.71,-25.81,-28.85,0,*54
1514664347.47,21155,6.06,72384.0,-8.71,-25.81,-28.69,0,*57
1514664348.76,21156,6.06,72386.5,-8.69,-26.17,-29.01,0,*5E
1514664349.99,21157,6.06,72382.8,-8.71,-26.33,-29.07,0,*56
1514664351.22,21158,6.06,72384.5,-8.71,-26.49,-29.13,0,*51
1514664352.48,21159,6.06,72388.3,-8.71,-26.55,-29.39,0,*55
1514664353.72,21160,6.06,72384.8,-8.71,-26.81,-29.57,0,*5E
1514664354.96,21161,6.06,72380.5,-8.69,-27.03,-29.61,0,*58
1514664356.23,21162,6.06,72382.0,-8.69,-27.19,-29.73,0,*53
1514664357.51,21163,6.06,72376.3,-8.69,-27.19,-29.73,0,*52
1514664358.73,21164,6.06,72380.0,-8.71,-27.07,-29.61,0,*50
1514664359.95,21165,6.06,72376.5,-8.71,-27.19,-29.61,0,*5E
1514664361.19,21166,6.06,72364.8,-8.71,-27.51,-29.89,0,*57
1514664362.43,21167,6.06,72364.3,-8.73,-27.55,-29.83,0,*5A
1514664363.64,21168,6.06,72370.5,-8.71,-27.67,-29.95,0,*51
1514664364.85,21169,6.06,72380.5,-8.71,-27.71,-29.95,0,*57
1514664366.08,21170,6.06,72382.8,-8.71,-27.83,-29.95,0,*52
1514664367.32,21171,6.06,72372.3,-8.73,-27.89,-29.95,0,*5B
1514664368.58,21172,6.06,72376.3,-8.71,-28.09,-30.05,0,*5C
1514664369.84,21173,6.06,72380.5,-8.69,-28.09,-30.11,0,*51
1514664371.1,21174,6.06,72378.8,-8.69,-28.21,-30.11,0,*5C
1514664372.39,21175,6.06,72372.3,-8.69,-28.21,-30.05,0,*58
1514664373.63,21176,6.06,72370.5,-8.69,-28.37,-30.11,0,*59
1514664374.84,21177,6.06,72374.8,-8.71,-28.53,-30.11,0,*53
1514664376.11,21178,6.06,72376.0,-8.69,-28.75,-30.33,0,*51
1514664377.37,21179,6.06,72374.0,-8.69,-28.75,-30.23,0,*51
1514664378.64,21180,6.06,72368.0,-8.69,-28.75,-30.33,0,*56
1514664379.91,21181,6.06,72370.5,-8.69,-28.91,-30.45,0,*5C
1514664381.17,21182,6.06,72364.8,-8.71,-29.01,-30.51,0,*5B
1514664382.41,21183,6.06,72376.5,-8.71,-29.07,-30.51,0,*5C
1514664383.63,21184,6.06,72370.5,-8.71,-29.23,-30.67,0,*58
1514664384.87,21185,6.06,72370.8,-8.71,-29.29,-30.67,0,*53
1514664386.15,21186,6.06,72368.5,-8.73,-29.45,-30.73,0,*5D
1514664387.4,21187,6.06,72372.5,-8.71,-29.57,-30.77,0,*59
1514664388.69,21188,6.06,72376.5,-8.69,-29.73,-30.95,0,*55
1514664389.95,21189,6.06,72380.0,-8.69,-29.89,-31.01,0,*5D
1514664391.2,21190,6.06,72378.3,-8.71,-29.95,-31.11,0,*50
1514664392.41,21191,6.06,72376.8,-8.71,-30.11,-31.17,0,*53
1514664393.65,21192,6.06,72372.3,-8.71,-29.95,-30.95,0,*5F
1514664394.89,21193,6.06,72376.3,-8.71,-30.11,-31.11,0,*57
1514664396.1,21194,6.06,72376.0,-8.71,-30.33,-31.29,0,*5B
1514664397.35,21195,6.06,72376.5,-8.73,-30.55,-31.33,0,*53
1514664398.56,21196,6.06,72374.3,-8.71,-30.67,-31.33,0,*53
1514664399.83,21197,6.06,72380.5,-8.73,-30.67,-31.39,0,*5A
1514664401.1,21198,6.06,72382.8,-8.73,-30.67,-31.23,0,*5E
1514664402.35,21199,6.06,72376.0,-8.73,-30.55,-31.05,0,*5A
1514664403.58,21200,6.06,72386.0,-8.71,-30.55,-31.17,0,*58
1514664404.84,21201,6.06,72380.5,-8.71,-30.61,-31.11,0,*58
1514664406.11,21202,6.06,72382.5,-8.75,-30.73,-31.23,0,*5D
1514664407.38,21203,6.06,72380.8,-8.73,-30.83,-31.23,0,*55
1514664408.64,21204,6.06,72374.8,-8.73,-30.89,-31.17,0,*5F
1514664409.91,21205,6.06,72382.5,-8.73,-31.05,-31.23,0,*5C
1514664411.17,21206,6.06,72378.3,-8.73,-31.01,-31.23,0,*5B
1514664412.44,21207,6.06,72376.8,-8.73,-31.33,-31.23,0,*5B
1514664413.73,21208,6.06,72384.3,-8.73,-31.23,-31.23,0,*55
1514664414.96,21209,6.06,72380.8,-8.75,-31.39,-31.33,0,*58
1514664416.24,21210,6.06,72380.3,-8.77,-31.23,-31.29,0,*52
1514664417.5,21211,6.06,72386.0,-8.75,-31.57,-31.39,0,*53
1514664418.77,21212,6.06,72382.0,-8.77,-31.39,-31.29,0,*5B
1514664419.98,21213,6.06,72378.5,-8.75,-31.33,-31.05,0,*5C
1514664421.25,21214,6.06,72384.0,-8.77,-31.23,-31.05,0,*58
1514664422.55,21215,6.06,72380.5,-8.77,-31.11,-30.89,0,*5D
1514664423.8,21216,6.06,72382.5,-8.75,-30.83,-30.73,0,*53
1514664425.02,21217,6.06,72384.0,-8.75,-31.17,-30.83,0,*51
1514664426.28,21218,6.06,72376.3,-8.73,-31.17,-30.73,0,*57
1514664427.53,21219,6.06,72380.8,-8.73,-31.17,-30.83,0,*59
1514664428.83,21220,6.06,72380.8,-8.77,-31.23,-30.77,0,*5B
1514664430.1,21221,6.06,72390.0,-8.75,-31.39,-30.89,0,*52
1514664431.34,21222,6.06,72386.3,-8.75,-31.33,-30.89,0,*5B
1514664432.61,21223,6.06,72380.3,-8.75,-31.23,-30.73,0,*5E
1514664433.85,21224,6.06,72384.8,-8.75,-31.39,-31.01,0,*56
1514664435.09,21225,6.06,72382.5,-8.75,-31.57,-31.05,0,*5B
1514664436.33,21226,6.06,72384.0,-8.75,-31.61,-31.17,0,*5E
1514664437.6,21227,6.06,72384.8,-8.77,-31.61,-31.05,0,*5E
1514664438.83,21228,6.06,72382.3,-8.75,-31.61,-31.05,0,*53
1514664440.13,21229,6.06,72386.5,-8.77,-31.61,-31.11,0,*55
1514664441.4,21230,6.06,72384.3,-8.75,-31.57,-30.89,0,*5A
1514664442.67,21231,6.06,72386.5,-8.77,-31.51,-31.05,0,*5A
1514664443.93,21232,6.06,72384.3,-8.77,-31.67,-31.11,0,*59
1514664445.2,21233,6.06,72382.3,-8.77,-31.67,-31.11,0,*58
1514664446.49,21234,6.06,72380.3,-8.77,-31.61,-30.95,0,*54
1514664447.74,21235,6.06,72382.8,-8.75,-31.45,-30.77,0,*5D
1514664448.96,21236,6.06,72388.0,-8.75,-31.33,-30.67,0,*5E
1514664450.22,21237,6.06,72384.0,-8.77,-31.79,-30.95,0,*5E
1514664451.49,21238,6.06,72376.5,-8.77,-31.29,-30.55,0,*58
1514664452.73,21239,6.06,72376.3,-8.75,-31.39,-30.67,0,*5B
1514664453.98,21240,6.06,72382.0,-8.75,-31.57,-30.83,0,*57
1514664455.28,21241,6.06,72386.0,-8.77,-31.39,-30.77,0,*57
1514664456.51,21242,6.06,72382.0,-8.75,-31.17,-30.39,0,*50
1514664457.78,21243,6.06,72384.8,-8.77,-31.23,-30.45,0,*5F
1514664459.01,21244,6.06,72388.5,-8.75,-31.05,-30.39,0,*55
1514664460.22,21245,6.06,72380.8,-8.75,-31.01,-30.33,0,*5A
1514664461.47,21246,6.06,72374.3,-8.75,-31.23,-30.67,0,*58
1514664462.74,21247,6.06,72384.5,-8.73,-31.39,-30.83,0,*5E
1514664464.01,21248,6.06,72386.5,-8.73,-31.73,-31.05,0,*50
1514664465.24,21249,6.06,72388.0,-8.75,-31.73,-31.05,0,*57
1514664466.48,21250,6.06,72386.5,-8.75,-31.61,-31.01,0,*58
1514664467.72,21251,6.06,72388.0,-8.75,-31.73,-31.01,0,*5A
1514664468.96,21252,6.06,72386.3,-8.75,-31.61,-31.05,0,*5E
1514664470.24,21253,6.06,72386.8,-8.77,-31.45,-30.89,0,*5E
1514664471.54,21254,6.06,72390.3,-8.77,-31.61,-30.89,0,*5F
1514664472.78,21255,6.06,72388.5,-8.75,-31.73,-31.05,0,*5A
1514664474.01,21256,6.06,72388.0,-8.77,-31.67,-31.05,0,*5E
1514664475.28,21257,6.06,72390.5,-8.77,-31.73,-31.01,0,*5E
1514664476.52,21258,6.06,72392.5,-8.75,-31.73,-31.17,0,*54
1514664477.76,21259,6.06,72394.0,-8.75,-31.17,-30.55,0,*50
1514664478.99,21260,6.06,72392.3,-8.75,-30.73,-30.11,0,*59
1514664480.28,21261,6.06,72386.3,-8.77,-30.95,-30.39,0,*58
1514664481.49,21262,6.06,72378.5,-8.75,-30.83,-30.11,0,*54
1514664482.75,21263,6.06,72374.8,-8.77,-30.77,-30.11,0,*5C
1514664483.97,21264,6.06,72370.5,-8.75,-30.83,-30.27,0,*57
1514664485.22,21265,6.06,72364.8,-8.73,-30.73,-30.11,0,*5A
1514664486.46,21266,6.06,72366.5,-8.73,-31.01,-30.27,0,*58
1514664487.75,21267,6.06,72376.0,-8.73,-30.73,-30.17,0,*5E
1514664488.98,21268,6.06,72372.0,-8.71,-31.01,-30.51,0,*55
1514664490.25,21269,6.06,72378.0,-8.73,-31.61,-31.05,0,*50
1514664491.49,21270,6.06,72376.5,-8.73,-31.05,-30.67,0,*5F
1514664492.74,21271,6.06,72376.3,-8.71,-31.29,-30.77,0,*53
1514664494.03,21272,6.06,72382.8,-8.73,-31.23,-30.55,0,*58
1514664495.26,21273,6.06,72378.0,-8.73,-31.01,-30.33,0,*59
1514664496.52,21274,6.06,72378.5,-8.73,-31.01,-30.39,0,*54
1514664497.78,21275,6.0,72382.3,-8.69,-30.77,-30.27,0,*51
1514664499.02,21276,6.06,72380.5,-8.71,-30.77,-30.33,0,*5E
1514664500.26,21277,6.06,72386.0,-8.71,-30.73,-30.27,0,*5E
1514664501.5,21278,6.06,72386.3,-8.71,-30.77,-30.33,0,*50
1514664502.74,21279,6.06,72380.8,-8.69,-30.83,-30.45,0,*52
1514664503.99,21280,6.06,72382.3,-8.69,-30.83,-30.33,0,*55
1514664505.27,21281,6.06,72378.8,-8.69,-30.51,-30.05,0,*5E
1514664506.53,21282,6.06,72372.8,-8.69,-30.61,-30.27,0,*5E
1514664507.76,21283,6.06,72374.3,-8.69,-30.67,-30.11,0,*5C
1514664509.04,21284,6.06,72384.0,-8.67,-31.11,-30.89,0,*54